This is the latest recevied weather packets stored in our database for station/object EA1IOK-1. If no packets are shown the sender has not sent any weather packets the latest 10 day(s).
| Time | Temp. | Humidity | Pressure | Rain* | Wind** | Luminosity | Snow |
|---|---|---|---|---|---|---|---|
| 1777692129 | 12.22° C | 100% | 1014.8 hPa | - | - | - | - |
| 1777691229 | 12.22° C | 100% | 1014.8 hPa | - | - | - | - |
| 1777690328 | 12.78° C | 100% | 1015 hPa | - | - | - | - |
| 1777689428 | 11.67° C | 100% | 1015 hPa | - | - | - | - |
| 1777688527 | 12.22° C | 100% | 1015 hPa | - | - | - | - |
| 1777687626 | 11.67° C | 100% | 1015.1 hPa | - | - | - | - |
| 1777686726 | 11.67° C | 100% | 1015.1 hPa | - | - | - | - |
| 1777685824 | 12.78° C | 100% | 1015.3 hPa | - | - | - | - |
| 1777684923 | 13.33° C | 100% | 1015.6 hPa | - | - | - | - |
| 1777684056 | 13.89° C | 100% | 1015.7 hPa | - | - | - | - |
| 1777684022 | 13.89° C | 100% | 1015.7 hPa | - | - | - | - |
| 1777683122 | 13.89° C | 100% | 1015.7 hPa | - | - | - | - |
| 1777682221 | 13.89° C | 100% | 1016.1 hPa | - | - | - | - |
| 1777681321 | 14.44° C | 100% | 1015.9 hPa | - | - | - | - |
| 1777680421 | 14.44° C | 100% | 1016.1 hPa | - | - | - | - |
| 1777679520 | 14.44° C | 100% | 1016.1 hPa | - | - | - | - |
| 1777678619 | 14.44° C | 100% | 1016.3 hPa | - | - | - | - |
| 1777677719 | 14.44° C | 100% | 1016.4 hPa | - | - | - | - |
| 1777676818 | 15° C | 100% | 1016.4 hPa | - | - | - | - |
| 1777675917 | 15° C | 100% | 1016.3 hPa | - | - | - | - |
| 1777675016 | 15.56° C | 100% | 1016.5 hPa | - | - | - | - |
| 1777674116 | 15° C | 100% | 1016.6 hPa | - | - | - | - |
| 1777673214 | 15° C | 100% | 1016.5 hPa | - | - | - | - |
| 1777672314 | 15.56° C | 100% | 1016.6 hPa | - | - | - | - |
| 1777671413 | 15° C | 100% | 1016.7 hPa | - | - | - | - |
* Rain since midnight (hover to see other rain measurements)
** Current wind speed in m/s (hover to see current wind gust speed)